Akron, CO

8:49 AM MDT on October 20, 2017 (GMT -0600)
Akron-Washington County

Weather History for KAKO - February, 2013

Change the Weather History Date:

Sunday, February 3, 2013

  Actual Average Record
Temperature  
Mean Temperature 39 °F 29 °F  
Max Temperature 51 °F 41 °F 65 °F (1962)
Min Temperature 27 °F 18 °F -18 °F (1989)
Degree Days  
Heating Degree Days 26    
Month to date heating degree days 81  
Cooling Degree Days 0    
Month to date cooling degree days 0  
Moisture  
Dew Point 18 °F    
Average Humidity 45    
Maximum Humidity 63    
Minimum Humidity 27    
Precipitation  
Precipitation 0.00 in 0.02 in 0.96 in (1986)
Month to date precipitation T 0.05  
Year to date precipitation 0.03 0.35  
Sea Level Pressure  
Sea Level Pressure 30.03 in    
Wind  
Wind Speed 9 mph (WSW)    
Max Wind Speed 18 mph    
Max Gust Speed 22 mph    
Visibility 10 miles    
Events      
T = Trace of Precipitation, MM = Missing Value Source: NWS Daily Summary

Daily Weather History Graph

Daily Weather History Graph

Search for Another Location

Airport or City:

Trip Planner

Search our weather history database for the weather conditions in past years. The results will help you decide how hot, cold, wet, or windy it might be!

Date:

Astronomy

Feb. 03, 2013 Rise Set
Actual Time 6:59 AM MST 5:14 PM MST
Civil Twilight 6:30 AM MST 5:43 PM MST
Nautical Twilight 5:58 AM MST 6:15 PM MST
Astronomical Twilight 5:26 AM MST 6:47 PM MST
Moon 12:29 AM MST (2/3) 10:53 AM MST (2/3)
Length of Visible Light 11h 12m
Length of Day
10h 15m
Waning Gibbous, 48% of the Moon is Illuminated
Feb 3
Waning Gibbous
Feb 10
New
Feb 17
First Quarter
Feb 25
Full
Mar 4
Last Quarter

Hourly Weather History & Observations

Time (MST) Temp. Windchill Dew Point Humidity Pressure Visibility Wind Dir Wind Speed Gust Speed Precip Events Conditions
12:53 AM 30.0 °F 25.2 °F 16.0 °F 56% 30.26 in 10.0 mi South 4.6 mph - N/A   Clear
1:53 AM 28.9 °F 22.8 °F 15.1 °F 56% 30.23 in 10.0 mi SSE 5.8 mph - N/A   Clear
2:53 AM 28.9 °F 21.9 °F 15.1 °F 56% 30.21 in 10.0 mi South 6.9 mph - N/A   Clear
3:53 AM 28.9 °F 20.4 °F 16.0 °F 58% 30.20 in 10.0 mi South 9.2 mph - N/A   Clear
4:53 AM 28.9 °F 19.2 °F 17.1 °F 61% 30.19 in 10.0 mi SSW 11.5 mph - N/A   Clear
5:53 AM 28.9 °F 19.2 °F 15.1 °F 56% 30.18 in 10.0 mi SSW 11.5 mph - N/A   Clear
6:53 AM 32.0 °F 23.0 °F 15.1 °F 50% 30.18 in 10.0 mi South 11.5 mph - N/A   Clear
7:53 AM 34.0 °F 25.0 °F 17.1 °F 50% 30.16 in 10.0 mi SSW 12.7 mph - N/A   Clear
8:53 AM 39.0 °F 31.0 °F 19.0 °F 45% 30.11 in 10.0 mi SSW 13.8 mph - N/A   Clear
9:53 AM 45.0 °F 37.9 °F 19.9 °F 37% 30.06 in 10.0 mi SW 16.1 mph - N/A   Clear
10:53 AM 46.9 °F - 19.9 °F 34% 30.02 in 10.0 mi WSW 15.0 mph - N/A   Clear
11:53 AM 50.0 °F - 21.0 °F 32% 29.98 in 10.0 mi West 11.5 mph - N/A   Clear
12:53 PM 51.1 °F - 19.0 °F 28% 29.93 in 10.0 mi WSW 8.1 mph - N/A   Clear
1:53 PM 50.0 °F - 18.0 °F 28% 29.90 in 10.0 mi West 5.8 mph - N/A   Clear
2:53 PM 48.9 °F - 19.9 °F 32% 29.89 in 10.0 mi WNW 3.5 mph - N/A   Clear
3:53 PM 46.9 °F - 21.9 °F 37% 29.89 in 10.0 mi North 4.6 mph - N/A   Clear
4:53 PM 42.1 °F 37.7 °F 23.0 °F 47% 29.90 in 10.0 mi WNW 6.9 mph - N/A   Clear
5:53 PM 39.0 °F 35.7 °F 21.0 °F 49% 29.91 in 10.0 mi NNW 4.6 mph - N/A   Clear
6:53 PM 37.9 °F 32.1 °F 19.0 °F 47% 29.91 in 10.0 mi WNW 8.1 mph - N/A   Clear
7:53 PM 37.9 °F 30.9 °F 16.0 °F 41% 29.91 in 10.0 mi NW 10.4 mph - N/A   Clear
8:53 PM 36.0 °F 28.5 °F 15.1 °F 43% 29.92 in 10.0 mi NNW 10.4 mph - N/A   Clear
9:53 PM 35.1 °F 25.2 °F 14.0 °F 42% 29.93 in 10.0 mi NNW 16.1 mph - N/A   Clear
10:53 PM 32.0 °F 21.6 °F 14.0 °F 48% 29.94 in 10.0 mi NNW 15.0 mph - N/A   Clear
11:53 PM 30.9 °F 21.7 °F 14.0 °F 50% 29.95 in 10.0 mi NNW 11.5 mph - N/A   Clear